OK2MD-6 Weather Reports


time (UTC)temp
C
wind
direction
speed
KPH
gust
KPH
rain 1hr
cm
rain 24hr
cm
rain mn
cm
humidity
%
barometer
mb
20260507020004 14 304 6.4 14.5 0.00 0.00 0.00 84 1008.1
20260507014005 14 288 8.0 19.3 0.00 0.00 0.00 83 1007.9
20260507012003 14 302 8.0 17.7 0.00 0.00 0.00 82 1007.6
20260507010024 14 275 8.0 14.5 0.00 0.00 0.00 81 1007.2
20260507004003 14 267 3.2 9.7 0.00 0.00 0.00 81 1006.7
20260507002004 14 267 4.8 12.9 0.00 0.00 0.00 80 1006.9
20260507000005 15 265 4.8 11.3 0.00 0.00 0.00 80 1006.7
20260506234003 15 247 4.8 11.3 0.00 0.00 0.00 80 1006.6
20260506232025 15 197 1.6 4.8 0.00 0.00 0.00 78 1006.1
20260506230003 15 191 0.0 1.6 0.00 0.00 0.00 76 1005.9
20260506224024 15 189 1.6 9.7 0.00 0.00 0.00 74 1005.8
20260506222004 16 186 0.0 1.6 0.00 0.00 0.00 73 1005.7
20260506220005 16 182 1.6 6.4 0.00 0.00 0.00 72 1005.5
20260506214003 16 181 0.0 3.2 0.00 0.00 0.00 74 1005.3
20260506212005 16 180 1.6 6.4 0.00 0.00 0.00 72 1004.9
20260506210024 16 178 1.6 8.0 0.00 0.00 0.00 71 1004.8
20260506204003 17 184 3.2 9.7 0.00 0.00 0.00 71 1004.8
20260506202003 17 185 3.2 9.7 0.00 0.00 0.00 69 1004.8
20260506200005 17 181 3.2 14.5 0.00 0.00 0.00 66 1004.5
20260506194005 18 168 4.8 14.5 0.00 0.00 0.00 65 1004.4
20260506192026 18 168 4.8 16.1 0.00 0.00 0.00 64 1004.4
20260506190004 19 185 4.8 17.7 0.00 0.00 0.00 62 1004.3
20260506184003 19 169 4.8 14.5 0.00 0.00 0.00 60 1004.3
20260506182003 20 180 3.2 11.3 0.00 0.00 0.00 58 1004.1
20260506180004 20 167 3.2 11.3 0.00 0.00 0.00 57 1003.7
20260506174024 21 162 4.8 19.3 0.00 0.00 0.00 55 1003.6
20260506172003 21 162 3.2 16.1 0.00 0.00 0.00 54 1003.8
20260506170005 22 162 6.4 22.5 0.00 0.00 0.00 52 1004.0
20260506164004 22 168 8.0 27.4 0.00 0.00 0.00 51 1004.0
20260506162003 23 183 6.4 16.1 0.00 0.00 0.00 49 1004.2
20260506160004 23 165 9.7 20.9 0.00 0.00 0.00 47 1004.4
20260506154003 23 173 8.0 19.3 0.00 0.00 0.00 45 1004.6
20260506152005 23 165 8.0 20.9 0.00 0.00 0.00 47 1005.0
20260506150005 23 170 8.0 16.1 0.00 0.00 0.00 49 1005.1
20260506144003 23 168 8.0 20.9 0.00 0.00 0.00 48 1005.4
20260506142005 23 165 8.0 29.0 0.00 0.00 0.00 49 1005.5
20260506140026 23 178 8.0 20.9 0.00 0.00 0.00 49 1005.9
20260506134005 23 181 9.7 20.9 0.00 0.00 0.00 49 1005.9
20260506132005 23 177 9.7 22.5 0.00 0.00 0.00 52 1006.1
20260506130025 23 169 8.0 22.5 0.00 0.00 0.00 50 1006.4
20260506124004 22 175 8.0 20.9 0.00 0.00 0.00 52 1006.5
20260506122003 22 162 8.0 24.1 0.00 0.00 0.00 49 1006.8
20260506120004 22 195 6.4 16.1 0.00 0.00 0.00 50 1006.8
20260506114003 22 177 4.8 16.1 0.00 0.00 0.00 48 1007.0
20260506112003 23 194 6.4 14.5 0.00 0.00 0.00 47 1007.2
20260506110004 22 185 4.8 16.1 0.00 0.00 0.00 52 1007.4
20260506104005 23 190 6.4 14.5 0.00 0.00 0.00 48 1007.6
20260506102025 22 202 4.8 16.1 0.00 0.00 0.00 52 1007.6
20260506100003 22 179 6.4 17.7 0.00 0.00 0.00 52 1007.7
20260506094003 22 183 4.8 16.1 0.00 0.00 0.00 53 1007.7
20260506092003 21 227 3.2 11.3 0.00 0.00 0.00 55 1007.8
20260506090003 21 196 4.8 14.5 0.00 0.00 0.00 57 1007.9
20260506084024 20 220 3.2 9.7 0.00 0.00 0.00 60 1007.8
20260506082003 20 191 4.8 14.5 0.00 0.00 0.00 61 1008.0
20260506072003 18 191 3.2 12.9 0.00 0.00 0.00 70 1008.0
20260506062005 16 250 1.6 8.0 0.00 0.00 0.00 79 1008.1
20260506044004 10 0 0.0 0.0 0.00 0.00 0.00 92 1007.4
20260506042003 9 0 0.0 0.0 0.00 0.00 0.00 91 1007.3
20260506040024 9 0 0.0 0.0 0.00 0.00 0.00 89 1007.1
20260506034024 9 0 0.0 0.0 0.00 0.00 0.00 89 1007.0
20260506032005 10 0 0.0 0.0 0.00 0.00 0.00 87 1006.9
20260506030003 10 0 0.0 0.0 0.00 0.00 0.00 86 1006.8
20260506024024 10 143 0.0 1.6 0.00 0.00 0.00 85 1006.6
20260506022003 11 0 0.0 0.0 0.00 0.00 0.00 87 1006.7